| time (UTC) | temp F | wind direction | speed MPH | gust MPH | rain 1hr in | rain 24hr in | rain mn in | humidity % | barometer mb |
| 20260902170030 | 59 | 300 | 3.0 | 5.0 | 0.00 | 0.00 | 0.00 | 73 | 1008.5 |
| 20260902160030 | 59 | 59 | 2.0 | 4.0 | 0.00 | 0.00 | 0.00 | 73 | 1009.2 |
| 20260902154604 | 57 | 77 | 1.0 | 4.0 | 0.00 | 0.00 | 0.00 | 76 | 1009.4 |
| 20260902153029 | 56 | 238 | 0.0 | 4.0 | 0.00 | 0.00 | 0.00 | 79 | 1009.4 |
| 20260902151530 | 55 | 190 | 0.0 | 3.0 | 0.00 | 0.00 | 0.00 | 81 | 1009.4 |
| 20260902150030 | 55 | 110 | 0.0 | 3.0 | 0.00 | 0.00 | 0.00 | 81 | 1009.6 |
| 20260902144602 | 53 | 154 | 3.0 | 5.0 | 0.00 | 0.00 | 0.00 | 84 | 1009.8 |
| 20260902143028 | 52 | 178 | 2.0 | 4.0 | 0.00 | 0.00 | 0.00 | 85 | 1009.8 |
| 20260902141531 | 50 | 147 | 3.0 | 5.0 | 0.00 | 0.00 | 0.00 | 86 | 1009.8 |
| 20260902140036 | 49 | 159 | 4.0 | 7.0 | 0.00 | 0.00 | 0.00 | 87 | 1009.9 |
| 20260902134530 | 48 | 157 | 3.0 | 4.0 | 0.00 | 0.00 | 0.00 | 86 | 1009.9 |
| 20260902131530 | 48 | 192 | 3.0 | 5.0 | 0.00 | 0.00 | 0.00 | 84 | 1010.0 |
| 20260902124529 | 50 | 192 | 2.0 | 4.0 | 0.00 | 0.00 | 0.00 | 79 | 1010.1 |
| 20260902123033 | 52 | 135 | 3.0 | 6.0 | 0.00 | 0.00 | 0.00 | 79 | 1010.1 |
| 20260902121528 | 53 | 170 | 3.0 | 6.0 | 0.00 | 0.00 | 0.00 | 74 | 1010.2 |
| 20260902120029 | 53 | 256 | 2.0 | 7.0 | 0.00 | 0.00 | 0.00 | 73 | 1010.2 |
| 20260902114532 | 56 | 78 | 3.0 | 7.0 | 0.00 | 0.00 | 0.00 | 70 | 1010.3 |
| 20260902111531 | 57 | 321 | 8.0 | 17.0 | 0.00 | 0.00 | 0.00 | 68 | 1010.1 |
| 20260902110030 | 57 | 308 | 7.0 | 15.0 | 0.00 | 0.00 | 0.00 | 68 | 1010.2 |
| 20260902104530 | 58 | 310 | 6.0 | 12.0 | 0.00 | 0.00 | 0.00 | 67 | 1010.5 |
| 20260902103034 | 58 | 300 | 8.0 | 13.0 | 0.00 | 0.00 | 0.00 | 68 | 1010.6 |
| 20260902101529 | 57 | 300 | 7.0 | 14.0 | 0.00 | 0.00 | 0.00 | 69 | 1010.7 |
| 20260902100033 | 58 | 308 | 6.0 | 11.0 | 0.00 | 0.00 | 0.00 | 69 | 1010.8 |
| 20260902094530 | 58 | 289 | 6.0 | 15.0 | 0.00 | 0.00 | 0.00 | 69 | 1011.0 |
| 20260902093028 | 58 | 289 | 6.0 | 14.0 | 0.00 | 0.00 | 0.00 | 68 | 1011.0 |
| 20260902084531 | 57 | 288 | 2.0 | 7.0 | 0.00 | 0.00 | 0.00 | 69 | 1011.1 |
| 20260902083033 | 58 | 300 | 4.0 | 9.0 | 0.00 | 0.00 | 0.00 | 68 | 1011.1 |
| 20260902081531 | 58 | 295 | 6.0 | 14.0 | 0.00 | 0.00 | 0.00 | 69 | 1011.1 |
| 20260902080030 | 58 | 306 | 6.0 | 12.0 | 0.00 | 0.00 | 0.00 | 69 | 1011.2 |
| 20260902074529 | 58 | 299 | 8.0 | 14.0 | 0.00 | 0.00 | 0.00 | 70 | 1011.1 |
| 20260902073031 | 58 | 310 | 6.0 | 15.0 | 0.00 | 0.00 | 0.00 | 70 | 1011.3 |
| 20260902071530 | 58 | 324 | 6.0 | 14.0 | 0.00 | 0.00 | 0.00 | 70 | 1011.5 |
| 20260902070030 | 59 | 312 | 7.0 | 14.0 | 0.00 | 0.00 | 0.00 | 69 | 1011.7 |
| 20260902063029 | 60 | 304 | 6.0 | 12.0 | 0.00 | 0.00 | 0.00 | 68 | 1012.0 |
| 20260902061531 | 60 | 285 | 5.0 | 12.0 | 0.00 | 0.00 | 0.00 | 68 | 1012.1 |
| 20260902060031 | 60 | 286 | 5.0 | 13.0 | 0.00 | 0.00 | 0.00 | 68 | 1012.1 |
| 20260902053030 | 61 | 359 | 1.0 | 6.0 | 0.00 | 0.00 | 0.00 | 64 | 1012.0 |
| 20260902051529 | 61 | 231 | 5.0 | 15.0 | 0.00 | 0.00 | 0.00 | 64 | 1011.9 |
| 20260902050029 | 61 | 270 | 4.0 | 12.0 | 0.00 | 0.00 | 0.00 | 65 | 1011.8 |
| 20260902044530 | 61 | 272 | 5.0 | 13.0 | 0.00 | 0.00 | 0.00 | 65 | 1011.6 |
| 20260902041530 | 61 | 267 | 3.0 | 12.0 | 0.00 | 0.00 | 0.00 | 64 | 1011.4 |
| 20260902040032 | 61 | 283 | 4.0 | 11.0 | 0.00 | 0.00 | 0.00 | 64 | 1011.3 |
| 20260902034602 | 61 | 281 | 6.0 | 14.0 | 0.00 | 0.00 | 0.00 | 64 | 1011.0 |
| 20260902033105 | 61 | 287 | 8.0 | 19.0 | 0.00 | 0.00 | 0.00 | 65 | 1010.9 |
| 20260902030104 | 61 | 285 | 7.0 | 14.0 | 0.00 | 0.00 | 0.00 | 64 | 1011.0 |
| 20260902023030 | 62 | 286 | 8.0 | 16.0 | 0.00 | 0.00 | 0.00 | 63 | 1010.9 |
| 20260902021532 | 62 | 284 | 6.0 | 15.0 | 0.00 | 0.00 | 0.00 | 62 | 1010.9 |
| 20260902020106 | 63 | 279 | 6.0 | 14.0 | 0.00 | 0.00 | 0.00 | 61 | 1010.9 |
| 20260902013033 | 65 | 278 | 10.0 | 20.0 | 0.00 | 0.00 | 0.00 | 58 | 1010.6 |
| 20260902011529 | 65 | 285 | 11.0 | 21.0 | 0.00 | 0.00 | 0.00 | 58 | 1010.5 |
| 20260902010031 | 66 | 291 | 7.0 | 19.0 | 0.00 | 0.00 | 0.00 | 58 | 1010.4 |
| 20260902004532 | 66 | 301 | 9.0 | 18.0 | 0.00 | 0.00 | 0.00 | 58 | 1010.2 |
| 20260902003029 | 65 | 305 | 9.0 | 22.0 | 0.00 | 0.00 | 0.00 | 59 | 1010.1 |
| 20260902000107 | 66 | 305 | 9.0 | 18.0 | 0.00 | 0.00 | 0.00 | 60 | 1009.9 |
| 20260901234530 | 65 | 312 | 9.0 | 16.0 | 0.00 | 0.00 | 0.00 | 61 | 1009.9 |
| 20260901233144 | 66 | 332 | 11.0 | 21.0 | 0.00 | 0.00 | 0.00 | 59 | 1009.8 |
| 20260901231532 | 67 | 323 | 11.0 | 22.0 | 0.00 | 0.00 | 0.00 | 58 | 1009.8 |
| 20260901230035 | 67 | 324 | 13.0 | 24.0 | 0.00 | 0.00 | 0.00 | 58 | 1009.7 |
| 20260901224533 | 67 | 309 | 15.0 | 25.0 | 0.00 | 0.00 | 0.00 | 58 | 1009.6 |
| 20260901223107 | 67 | 298 | 15.0 | 28.0 | 0.00 | 0.00 | 0.00 | 57 | 1009.6 |
| 20260901221530 | 68 | 304 | 13.0 | 25.0 | 0.00 | 0.00 | 0.00 | 56 | 1009.2 |
| 20260901220027 | 68 | 298 | 14.0 | 26.0 | 0.00 | 0.00 | 0.00 | 56 | 1009.1 |
| 20260901214532 | 69 | 300 | 11.0 | 22.0 | 0.00 | 0.00 | 0.00 | 56 | 1009.1 |
| 20260901213108 | 69 | 307 | 13.0 | 23.0 | 0.00 | 0.00 | 0.00 | 56 | 1009.1 |
| 20260901210031 | 69 | 286 | 11.0 | 19.0 | 0.00 | 0.00 | 0.00 | 55 | 1009.3 |
| 20260901204644 | 69 | 293 | 11.0 | 22.0 | 0.00 | 0.00 | 0.00 | 54 | 1009.5 |
| 20260901203031 | 69 | 291 | 11.0 | 22.0 | 0.00 | 0.00 | 0.00 | 54 | 1009.6 |
| 20260901200032 | 68 | 303 | 10.0 | 19.0 | 0.00 | 0.00 | 0.00 | 54 | 1009.7 |
| 20260901194604 | 68 | 315 | 9.0 | 19.0 | 0.00 | 0.00 | 0.00 | 56 | 1009.9 |
| 20260901193103 | 67 | 302 | 12.0 | 22.0 | 0.00 | 0.00 | 0.00 | 57 | 1010.2 |
| 20260901191532 | 67 | 294 | 11.0 | 21.0 | 0.00 | 0.00 | 0.00 | 56 | 1010.4 |
| 20260901190030 | 68 | 301 | 9.0 | 22.0 | 0.00 | 0.00 | 0.00 | 57 | 1010.5 |
| 20260901184532 | 68 | 309 | 7.0 | 17.0 | 0.00 | 0.00 | 0.00 | 57 | 1010.5 |
| 20260901183030 | 67 | 326 | 8.0 | 17.0 | 0.00 | 0.00 | 0.00 | 58 | 1010.6 |
| 20260901181603 | 68 | 312 | 7.0 | 14.0 | 0.00 | 0.00 | 0.00 | 58 | 1010.7 |
| 20260901180027 | 66 | 307 | 4.0 | 9.0 | 0.00 | 0.00 | 0.00 | 61 | 1010.9 |
| 20260901174532 | 64 | 294 | 6.0 | 14.0 | 0.00 | 0.00 | 0.00 | 64 | 1010.9 |
| 20260901173032 | 63 | 304 | 6.0 | 13.0 | 0.00 | 0.00 | 0.00 | 66 | 1010.9 |
| 20260901171531 | 63 | 273 | 3.0 | 11.0 | 0.00 | 0.00 | 0.00 | 69 | 1011.1 |